Flag for Colombia Weather past 2 weeks in Cartagena, Colombia

Now
86 °F

Partly sunny.


Feels Like: 97 °F
Forecast: 79 / 90 °F
Wind: 3 mph from Northeast

Location: Cartagena / Rafael Nunez


UV Index: 10 (Very high)

Visibility: N/A


Pressure: 29.84 "Hg

Humidity: 75%

Dew point: 77 °F

Location of CartagenaLocation

Historic Weather in Cartagena

°F

Cartagena temperature yesterday

Maximum temperature yesterday: 90 °F (at 1:00 PM)
Minimum temperature yesterday: 79 °F (at 12:00 AM)
Average temperature yesterday: 82 °F

Past Weeks' High & Low Weather Summary

 TemperatureHumidityPressure
High95 °F (Apr 8, 12:00 PM)94% (Apr 6, 6:00 AM)29.90 "Hg (Apr 6, 6:00 AM)
Low77 °F (Apr 5, 5:00 AM)55% (Apr 12, 9:00 AM)29.70 "Hg (Apr 11, 4:00 PM)
Average83 °F78%29.78 "Hg
* Reported Apr 4 8:00 AM — Apr 19 8:00 AM, Cartagena, Weather by CustomWeather, © 2014

Note: Actual official high and low records may vary slightly from our data, if they occured in-between our weather recording intervals... More about our weather records

Advertising

Historic Weather Conditions — Data for Previous 24 hours

 ConditionsComfort  
Time TempWeatherWind HumidityBarometerVisibility
8:00 AM
Apr 19
84 °FScattered clouds.3 mph74%29.82 "HgN/A
7:00 AM81 °FPassing clouds.2 mph84%29.79 "HgN/A
6:00 AM79 °FScattered clouds.5 mph89%29.78 "HgN/A
5:00 AM79 °FPassing clouds.8 mph89%29.76 "HgN/A
4:00 AM79 °FPassing clouds.5 mph89%29.74 "HgN/A
3:00 AM79 °FPassing clouds.No wind89%29.75 "HgN/A
2:00 AM79 °FPassing clouds.2 mph89%29.76 "HgN/A
1:00 AM81 °FPassing clouds.6 mph84%29.77 "HgN/A
12:00 AM81 °FPassing clouds.2 mph84%29.80 "HgN/A
11:00 PM
Apr 18
81 °FPassing clouds.10 mph84%29.81 "HgN/A
10:00 PM81 °FPassing clouds.6 mph84%29.80 "HgN/A
9:00 PM81 °FPassing clouds.7 mph79%29.78 "HgN/A
8:00 PM81 °FPassing clouds.6 mph79%29.75 "HgN/A
7:00 PM82 °FPassing clouds.9 mph79%29.74 "HgN/A
6:00 PM84 °FPassing clouds.5 mph70%29.71 "HgN/A
5:00 PM86 °FPassing clouds.7 mph70%29.70 "HgN/A
4:00 PM86 °FScattered clouds.7 mph70%29.71 "HgN/A
3:00 PM86 °FScattered clouds.7 mph70%29.73 "HgN/A
2:00 PM86 °FScattered clouds.5 mph70%29.74 "HgN/A
1:00 PM90 °FScattered clouds.7 mph63%29.76 "HgN/A
12:00 PM88 °FScattered clouds.7 mph66%29.78 "HgN/A
11:00 AM88 °FScattered clouds.5 mph70%29.80 "HgN/A
10:00 AM86 °FSunny.5 mph75%29.81 "Hg10 mi
9:00 AM84 °FSunny.5 mph74%29.80 "Hg10 mi
Weather by CustomWeather, © 2014

See weather overview